{"data":{"norad_id":28470,"intl_designator":"2004-044A","name":"JB-3 3 (ZY 2C)","alt_names":[],"object_type":"PAYLOAD","status":"ACTIVE","operator":null,"country":"PRC","launch_date":"2004-11-06","launch_site_code":"TAISC","launch_vehicle":null,"mission":null,"orbit_class":"UNKNOWN","rcs_meters":4.419,"size_class":null,"mass_kg":null,"dimensions":null,"purposes":[],"wikipedia_slug":null,"has_3d_model":false,"image_url":null,"decayed_at":null,"tle_current":{"epoch":"2026-05-25T03:24:39.880800Z","epoch_age_seconds":73135,"freshness":"FRESH","line1":"1 28470U 04044A   26145.14212825  .00002929  00000+0  14079-3 0  9991","line2":"2 28470  97.2739 299.5839 0031960 302.8919  56.9242 15.19142779184283","mean_motion":15.19142779,"eccentricity":0.003196,"inclination_deg":97.2739,"raan_deg":299.5839,"arg_perigee_deg":302.8919,"mean_anomaly_deg":56.9242,"bstar":0.00014079,"rev_number":18428,"period_min":94.79030015519,"perigee_km":486.4205599439,"apogee_km":530.43949638793,"semimajor_km":6886.5670281659,"source":"CELESTRAK","updated_at":"2026-05-25T13:37:55.062417Z"}}}